Lexington, NE

4:36 AM CDT on September 23, 2017 (GMT -0500)
Kelly

Weather History for KLXN - April, 2013

Change the Weather History Date:

Friday, April 5, 2013

  Actual Average Record
Temperature  
Mean Temperature 56 °F -  
Max Temperature 77 °F 54 °F 78 °F (2011)
Min Temperature 36 °F 31 °F 19 °F (2003)
Degree Days  
Heating Degree Days 9    
Growing Degree Days 6 (Base 50)    
Moisture  
Dew Point 34 °F    
Average Humidity 48    
Maximum Humidity 83    
Minimum Humidity 18    
Precipitation  
Precipitation 0.00 in - - ()
Sea Level Pressure  
Sea Level Pressure 29.85 in    
Wind  
Wind Speed 13 mph (SSE)    
Max Wind Speed 29 mph    
Max Gust Speed 38 mph    
Visibility 10 miles    
Events      
Averages and records for this station are not official NWS values.
T = Trace of Precipitation, MM = Missing Value Source: NWS Daily Summary

Daily Weather History Graph

Daily Weather History Graph

Search for Another Location

Airport or City:

Trip Planner

Search our weather history database for the weather conditions in past years. The results will help you decide how hot, cold, wet, or windy it might be!

Date:

Astronomy

Apr. 05, 2013 Rise Set
Actual Time 7:15 AM CDT 8:08 PM CDT
Civil Twilight 6:47 AM CDT 8:36 PM CDT
Nautical Twilight 6:14 AM CDT 9:09 PM CDT
Astronomical Twilight 5:40 AM CDT 9:43 PM CDT
Moon 4:25 AM CDT (4/5) 3:32 PM CDT (4/5)
Length of Visible Light 13h 48m
Length of Day
12h 52m
Waning Crescent, 23% of the Moon is Illuminated
Apr 5
Waning Crescent
Apr 10
New
Apr 18
First Quarter
Apr 25
Full
May 2
Last Quarter

Hourly Weather History & Observations

Time (CDT) Temp. Windchill Dew Point Humidity Pressure Visibility Wind Dir Wind Speed Gust Speed Precip Events Conditions
12:15 AM 46.0 °F 41.9 °F 32.0 °F 58% 30.08 in 10.0 mi SE 8.1 mph - N/A   Clear
12:35 AM 45.7 °F 41.5 °F 32.0 °F 59% 30.08 in 10.0 mi SE 8.1 mph - N/A   Clear
12:55 AM 45.7 °F 42.0 °F 31.6 °F 58% 30.08 in 10.0 mi SE 6.9 mph - N/A   Clear
1:15 AM 43.9 °F 39.9 °F 31.8 °F 63% 30.07 in 10.0 mi SE 6.9 mph - N/A   Clear
1:35 AM 43.7 °F 41.1 °F 32.0 °F 63% 30.07 in 10.0 mi SE 4.6 mph - N/A   Clear
1:55 AM 42.8 °F 39.3 °F 31.8 °F 65% 30.07 in 10.0 mi SE 5.8 mph - N/A   Clear
2:15 AM 40.6 °F 36.7 °F 31.1 °F 69% 30.08 in 10.0 mi SSE 5.8 mph - N/A   Clear
2:35 AM 42.4 °F 37.5 °F 32.0 °F 67% 30.06 in 10.0 mi SE 8.1 mph - N/A   Clear
2:55 AM 44.6 °F 39.7 °F 32.4 °F 62% 30.05 in 10.0 mi SE 9.2 mph - N/A   Clear
3:15 AM 42.1 °F 37.7 °F 32.0 °F 67% 30.05 in 10.0 mi SE 6.9 mph - N/A   Clear
3:35 AM 40.8 °F 36.9 °F 32.0 °F 71% 30.05 in 10.0 mi SE 5.8 mph - N/A   Clear
3:55 AM 39.7 °F 35.6 °F 32.0 °F 74% 30.04 in 10.0 mi SE 5.8 mph - N/A   Clear
4:15 AM 40.5 °F 36.5 °F 32.5 °F 73% 30.04 in 10.0 mi SE 5.8 mph - N/A   Clear
4:35 AM 40.1 °F 36.1 °F 32.4 °F 74% 30.04 in 10.0 mi ESE 5.8 mph - N/A   Clear
4:55 AM 37.4 °F 32.1 °F 31.6 °F 80% 30.03 in 10.0 mi East 6.9 mph - N/A   Clear
5:15 AM 38.1 °F 32.9 °F 32.0 °F 79% 30.03 in 10.0 mi East 6.9 mph - N/A   Clear
5:35 AM 38.5 °F 32.1 °F 32.0 °F 78% 30.02 in 10.0 mi ESE 9.2 mph - N/A   Clear
5:55 AM 37.9 °F 30.5 °F 32.0 °F 79% 30.01 in 10.0 mi ESE 11.5 mph - N/A   Clear
6:15 AM 37.8 °F 31.3 °F 32.0 °F 80% 30.01 in 10.0 mi ESE 9.2 mph - N/A   Clear
6:35 AM 37.8 °F 31.3 °F 32.4 °F 81% 30.01 in 10.0 mi ESE 9.2 mph - N/A   Clear
6:55 AM 37.6 °F 30.5 °F 32.4 °F 81% 30.02 in 10.0 mi SE 10.4 mph - N/A   Clear
7:15 AM 36.9 °F 29.6 °F 32.0 °F 83% 30.01 in 10.0 mi SE 10.4 mph - N/A   Clear
7:35 AM 36.9 °F 29.1 °F 32.0 °F 83% 30.00 in 10.0 mi SE 11.5 mph - N/A   Clear
7:55 AM 37.8 °F 30.7 °F 32.5 °F 81% 29.99 in 10.0 mi SE 10.4 mph - N/A   Clear
8:15 AM 38.5 °F 32.1 °F 32.9 °F 80% 29.99 in 10.0 mi SE 9.2 mph - N/A   Clear
8:35 AM 41.0 °F 35.2 °F 34.0 °F 76% 29.99 in 10.0 mi SE 9.2 mph - N/A   Clear
8:55 AM 43.2 °F 37.4 °F 34.9 °F 73% 29.99 in 10.0 mi SE 10.4 mph - N/A   Clear
9:15 AM 45.3 °F 40.6 °F 36.1 °F 70% 29.98 in 10.0 mi SE 9.2 mph - N/A   Clear
9:35 AM 50.9 °F - 37.2 °F 59% 29.97 in 10.0 mi SSE 16.1 mph - N/A   Clear
9:55 AM 54.0 °F - 37.8 °F 54% 29.95 in 10.0 mi South 13.8 mph - N/A   Clear
10:15 AM 57.4 °F - 35.6 °F 44% 29.94 in 10.0 mi SSE 19.6 mph 25.3 mph N/A   Clear
10:35 AM 58.6 °F - 35.2 °F 42% 29.93 in 10.0 mi South 16.1 mph 23.0 mph N/A   Clear
10:55 AM 60.3 °F - 35.4 °F 39% 29.92 in 10.0 mi South 18.4 mph 25.3 mph N/A   Clear
11:15 AM 61.7 °F - 34.9 °F 37% 29.92 in 10.0 mi SSE 18.4 mph 24.2 mph N/A   Clear
11:35 AM 64.4 °F - 33.8 °F 32% 29.91 in 10.0 mi South 19.6 mph 24.2 mph N/A   Clear
11:55 AM 66.0 °F - 33.3 °F 30% 29.90 in 10.0 mi South 23.0 mph 29.9 mph N/A   Clear
12:15 PM 67.6 °F - 33.8 °F 29% 29.88 in 10.0 mi South 23.0 mph 28.8 mph N/A   Clear
12:35 PM 67.6 °F - 33.8 °F 29% 29.87 in 10.0 mi South 20.7 mph 29.9 mph N/A   Clear
12:55 PM 68.9 °F - 33.3 °F 27% 29.85 in 10.0 mi South 20.7 mph 31.1 mph N/A   Clear
1:15 PM 70.0 °F - 32.0 °F 25% 29.83 in 10.0 mi South 20.7 mph 29.9 mph N/A   Clear
1:35 PM 70.2 °F - 32.2 °F 25% 29.81 in 10.0 mi SSE 25.3 mph 32.2 mph N/A   Clear
1:55 PM 70.2 °F - 32.7 °F 25% 29.79 in 10.0 mi SSE 24.2 mph 31.1 mph N/A   Clear
2:15 PM 71.2 °F - 32.2 °F 24% 29.78 in 10.0 mi SSE 27.6 mph 33.4 mph N/A   Clear
2:35 PM 72.9 °F - 32.2 °F 22% 29.77 in 10.0 mi South 24.2 mph 32.2 mph N/A   Clear
2:55 PM 72.3 °F - 34.2 °F 25% 29.76 in 10.0 mi SSE 21.9 mph 29.9 mph N/A   Clear
3:15 PM 73.2 °F - 32.5 °F 22% 29.74 in 10.0 mi South 23.0 mph 33.4 mph N/A   Clear
3:35 PM 74.7 °F - 29.7 °F 19% 29.72 in 10.0 mi South 24.2 mph 29.9 mph N/A   Clear
3:55 PM 75.6 °F - 29.7 °F 18% 29.70 in 10.0 mi South 23.0 mph 32.2 mph N/A   Clear
4:15 PM 75.9 °F - 30.7 °F 19% 29.68 in 10.0 mi South 28.8 mph 33.4 mph N/A   Clear
4:35 PM 76.8 °F - 31.8 °F 19% 29.67 in 10.0 mi South 26.5 mph 35.7 mph N/A   Clear
4:55 PM 76.1 °F - 31.6 °F 20% 29.66 in 10.0 mi South 24.2 mph 38.0 mph N/A   Clear
5:15 PM 76.8 °F - 31.6 °F 19% 29.66 in 10.0 mi South 27.6 mph 35.7 mph N/A   Clear
5:35 PM 75.9 °F - 31.8 °F 20% 29.65 in 10.0 mi South 25.3 mph 31.1 mph N/A   Clear
5:55 PM 75.6 °F - 32.0 °F 20% 29.66 in 10.0 mi South 25.3 mph 32.2 mph N/A   Clear
6:15 PM 75.6 °F - 31.3 °F 20% 29.66 in 10.0 mi South 23.0 mph 31.1 mph N/A   Clear
6:35 PM 73.0 °F - 34.5 °F 24% 29.66 in 10.0 mi SSE 21.9 mph 27.6 mph N/A   Clear
6:55 PM 70.2 °F - 36.5 °F 29% 29.65 in 10.0 mi South 20.7 mph - N/A   Clear
7:15 PM 69.1 °F - 36.7 °F 30% 29.64 in 10.0 mi SSE 18.4 mph 27.6 mph N/A   Clear
7:35 PM 68.4 °F - 36.9 °F 31% 29.63 in 10.0 mi SSE 23.0 mph - N/A   Clear
7:55 PM 67.6 °F - 36.5 °F 32% 29.63 in 10.0 mi SSE 21.9 mph 29.9 mph N/A   Clear
8:15 PM 66.4 °F - 36.5 °F 33% 29.63 in 10.0 mi SSE 17.3 mph 23.0 mph N/A   Clear
8:35 PM 65.1 °F - 37.4 °F 36% 29.63 in 10.0 mi SSE 16.1 mph 25.3 mph N/A   Clear
8:55 PM 63.7 °F - 38.1 °F 39% 29.63 in 10.0 mi SSE 20.7 mph 25.3 mph N/A   Clear
9:15 PM 63.1 °F - 38.5 °F 40% 29.63 in 10.0 mi SSE 16.1 mph 27.6 mph N/A   Clear
9:35 PM 62.1 °F - 38.8 °F 42% 29.63 in 10.0 mi SSE 18.4 mph 27.6 mph N/A   Clear
9:55 PM 61.0 °F - 39.4 °F 45% 29.64 in 10.0 mi SSE 18.4 mph 26.5 mph N/A   Clear
10:15 PM 60.8 °F - 39.7 °F 46% 29.64 in 10.0 mi South 19.6 mph 26.5 mph N/A   Clear
10:35 PM 59.9 °F - 40.1 °F 48% 29.64 in 10.0 mi South 17.3 mph 24.2 mph N/A   Clear
10:55 PM 59.2 °F - 40.5 °F 50% 29.63 in 10.0 mi South 19.6 mph 25.3 mph N/A   Clear
11:15 PM 59.0 °F - 40.8 °F 51% 29.62 in 10.0 mi South 18.4 mph 23.0 mph N/A   Clear
11:35 PM 58.1 °F - 40.6 °F 52% 29.62 in 10.0 mi South 16.1 mph - N/A   Clear
11:55 PM 57.7 °F - 41.0 °F 54% 29.62 in 10.0 mi South 16.1 mph - N/A   Clear